Location: Unspecified
(42.3650°N, 71.1030°W)
Time: 16:11:08
(UTC+00:00)

Transit 4A - Pass Details

Date: 02 July 2024
Orbit: 870 x 973 km, 66.8° (Epoch: 17 July)

Event Time Altitude Azimuth Distance (km) Brightness Sun altitude
Rises 01:06:36 0° 217° (SW) 3,458 10.9 -7.0°
Reaches altitude 10° 01:09:06 10° 220° (SW) 2,516 10.2 -7.4°
Maximum altitude 01:14:51 66° 303° (WNW) 947 8.3 -8.2°
Drops below altitude 10° 01:20:40 10° 26° (NNE) 2,529 10.4 -9.0°
Sets 01:23:11 0° 29° (NNE) 3,477 11.1 -9.3°
